星链-31747 (STARLINK-31747 )

导读

STARLINK-31747是美国SpaceX公司“星链”星座项目的低轨通信卫星,于2024年4月23日发射。作为星链组网卫星,它运行在近地轨道,依托星链网络的先进通信技术,为全球提供高速低延迟互联网接入,重点弥补偏远地区网络覆盖缺口,助力实现全球互联,是SpaceX持续推进星链星座部署、优化全球卫星互联网服务能力的重要组成部分。

Basic Information
目录编号:
59564
目录名称:
STARLINK-31747
国际标识:
2024-076A
轨道中心:
EARTH
卫星名称:
星链-31747
卫星全名:
星链-31747 (STARLINK-31747 )
卫星状态:
在轨 (已飞行864 天)
发射日期:
2024-04-23 UTC
国别 :
美国 (US)
星等 :
--
Orbit Information
数据来源 国际轨道数据
星历时间: 2026-09-03T20:45:25+0800
18小时前
查看轨道信息
半长轴: 6861.144km
偏心率: 0.0001396
轨道倾角: 43.002°
近地点辐角 268.804°
升交点赤经 74.058°
平近点角 91.265°
近地点: 482.049km
远地点: 483.965km
周期: 94.266分钟
每日圈数: 15.275942
Detailed Information
固有亮度:
5
最大亮度:
1.5
卫星平台:
Starlink v2.0 mini
覆盖范围:
全球
运营商:
太空探索技术公司
运营商所在国:
美国
制造商(研发单位):
太空探索技术公司
制造商所在国:
美国
使用方式:
暂无
Satellite Introduction
星链(Starlink)计划是由太空探索技术公司(SpaceX)提出的一个巨型低轨卫星互联网星座项目,计划在2019年至2024年间在太空搭建由约1.2万颗卫星组成的“星链”网络,其中1584颗将部署在地球上空550千米处的近地轨道,并从2020年开始工作。该卫星仍在工作。
2D Orbit Map
3D Orbit Map
Orbit Altitude Analysis Chart
Orbit Inclination Analysis Chart
Orbit Comprehensive Analysis Chart
View Comprehensive Chart
Conjunction Data List
Event ID Objects TCA Miss Dist (km) Collision Risk Probability Collision Risk Index (CRI) Action
CDM_260905-235103-787505-956421
2026-09-05T
23:51:09+0000
1.012 km
极远距离
2.452742E-5 中风险 0.63
CDM_260905-010805-956406-767721
2026-09-05T
01:08:38+0000
2.232 km
极远距离
2.042573E-6 低风险 0.41
CDM_260903-134203-787505-956421
2026-09-03T
13:42:47+0000
2.441 km
极远距离
1.775393E-6 低风险 0.4
CDM_260904-142305-956406-394521
2026-09-04T
14:23:39+0000
2.768 km
极远距离
1.247137E-6 低风险 0.37